Big Rapids, MI

1:56 AM EDT on June 28, 2017 (GMT -0400)
Roben-Hood

Weather History for KRQB - January, 2014

Change the Weather History Date:

Tuesday, January 7, 2014

  Actual Average Record
Temperature  
Mean Temperature 0 °F -  
Max Temperature 8 °F 26 °F 57 °F (2008)
Min Temperature -7 °F 9 °F -16 °F (1988)
Degree Days  
Heating Degree Days 65    
Moisture  
Dew Point -6 °F    
Average Humidity 73    
Maximum Humidity 77    
Minimum Humidity 66    
Precipitation  
Precipitation 0.00 in - - ()
Sea Level Pressure  
Sea Level Pressure 30.03 in    
Wind  
Wind Speed 11 mph (West)    
Max Wind Speed 23 mph    
Max Gust Speed 36 mph    
Visibility 6 miles    
Events Snow    
Averages and records for this station are not official NWS values.
T = Trace of Precipitation, MM = Missing Value Source: NWS Daily Summary

Daily Weather History Graph

Daily Weather History Graph

Search for Another Location

Airport or City:

Trip Planner

Search our weather history database for the weather conditions in past years. The results will help you decide how hot, cold, wet, or windy it might be!

Date:

Astronomy

Jan. 07, 2014 Rise Set
Actual Time 8:15 AM EST 5:21 PM EST
Civil Twilight 7:43 AM EST 5:53 PM EST
Nautical Twilight 7:07 AM EST 6:29 PM EST
Astronomical Twilight 6:32 AM EST 7:04 PM EST
Moon 11:49 AM EST (1/7) 12:06 AM EST (1/7)
Length of Visible Light 10h 10m
Length of Day
9h 06m
Waxing Crescent, 45% of the Moon is Illuminated
Jan 7
Waxing Crescent
Jan 7
First Quarter
Jan 15
Full
Jan 24
Last Quarter
Jan 30
New

Hourly Weather History & Observations

Time (EST) Temp. Windchill Dew Point Humidity Pressure Visibility Wind Dir Wind Speed Gust Speed Precip Events Conditions
12:14 AM -6.3 °F -24.1 °F -13.0 °F 73% 29.93 in 7.0 mi West 10.4 mph - N/A   Overcast
12:35 AM -6.7 °F -22.3 °F -13.2 °F 73% 29.93 in 5.0 mi West 8.1 mph - N/A   Haze
12:55 AM -6.7 °F -23.5 °F -13.2 °F 73% 29.93 in 5.0 mi West 9.2 mph - N/A   Haze
1:14 AM -6.7 °F -24.5 °F -13.2 °F 73% 29.93 in 5.0 mi West 10.4 mph 16.1 mph N/A   Haze
1:35 AM -6.7 °F -23.5 °F -13.2 °F 73% 29.93 in 5.0 mi West 9.2 mph - N/A   Haze
1:55 AM -7.1 °F -21.4 °F -13.5 °F 73% 29.93 in 4.0 mi West 6.9 mph - N/A Snow Light Snow
2:14 AM -7.6 °F -22.1 °F -13.5 °F 75% 29.93 in 3.0 mi WSW 6.9 mph - N/A Snow Light Snow
2:35 AM -7.4 °F -23.2 °F -13.4 °F 75% 29.94 in 4.0 mi West 8.1 mph - N/A Snow Light Snow
2:55 AM -7.2 °F -23.0 °F -13.2 °F 75% 29.94 in 4.0 mi WSW 8.1 mph - N/A Snow Light Snow
3:14 AM -6.9 °F -22.5 °F -13.0 °F 75% 29.94 in 4.0 mi WSW 8.1 mph - N/A   Haze
3:35 AM -6.9 °F -22.5 °F -13.0 °F 75% 29.94 in 4.0 mi WSW 8.1 mph - N/A Snow Light Snow
3:55 AM -6.5 °F -22.1 °F -12.8 °F 74% 29.94 in 5.0 mi WSW 8.1 mph - N/A   Haze
4:14 AM -6.0 °F -23.6 °F -12.3 °F 74% 29.94 in 5.0 mi West 10.4 mph - N/A   Haze
4:35 AM -6.2 °F -23.9 °F -12.3 °F 75% 29.94 in 4.0 mi WSW 10.4 mph - N/A   Haze
4:55 AM -5.8 °F -24.4 °F -11.9 °F 75% 29.95 in 3.0 mi WSW 11.5 mph - N/A Snow Light Snow
5:14 AM -5.8 °F -22.4 °F -12.1 °F 74% 29.95 in 5.0 mi WSW 9.2 mph - N/A   Haze
5:35 AM -5.8 °F -24.4 °F -11.9 °F 75% 29.95 in 3.0 mi West 11.5 mph - N/A Snow Light Snow
5:55 AM -5.3 °F -21.7 °F -11.2 °F 76% 29.96 in 3.0 mi West 9.2 mph - N/A Snow Light Snow
6:14 AM -5.1 °F -22.5 °F -11.0 °F 76% 29.96 in 2.5 mi West 10.4 mph - N/A Snow Light Snow
6:35 AM -4.5 °F -24.4 °F -10.7 °F 75% 29.97 in 3.0 mi West 13.8 mph 21.9 mph N/A   Haze
6:55 AM -4.5 °F -24.4 °F -11.2 °F 73% 29.97 in 4.0 mi West 13.8 mph 18.4 mph N/A   Haze
7:14 AM -4.9 °F -24.1 °F -11.2 °F 74% 29.98 in 7.0 mi West 12.7 mph - N/A   Overcast
7:35 AM -4.9 °F -22.3 °F -11.4 °F 74% 29.98 in 7.0 mi West 10.4 mph - N/A   Overcast
7:54 AM -4.9 °F -23.2 °F -11.2 °F 74% 29.98 in 7.0 mi WSW 11.5 mph - N/A   Overcast
8:14 AM -4.9 °F -22.3 °F -11.2 °F 74% 29.98 in 7.0 mi WSW 10.4 mph 17.3 mph N/A   Mostly Cloudy
8:35 AM -4.7 °F -23.0 °F -11.0 °F 74% 29.99 in 10.0 mi WSW 11.5 mph - N/A   Mostly Cloudy
8:55 AM -3.5 °F -23.1 °F -9.9 °F 74% 30.00 in 7.0 mi WSW 13.8 mph - N/A   Mostly Cloudy
9:14 AM -2.6 °F -22.6 °F -9.4 °F 73% 30.00 in 10.0 mi West 15.0 mph 21.9 mph N/A   Mostly Cloudy
9:35 AM -0.9 °F -19.1 °F -8.1 °F 72% 30.01 in 4.0 mi West 12.7 mph 21.9 mph N/A   Haze
9:54 AM -0.2 °F -18.2 °F -7.8 °F 70% 30.02 in 7.0 mi WSW 12.7 mph 24.2 mph N/A   Mostly Cloudy
10:14 AM 0.3 °F -15.8 °F -7.6 °F 69% 30.02 in 10.0 mi WSW 10.4 mph 23.0 mph N/A   Mostly Cloudy
10:35 AM 0.5 °F -20.0 °F -6.7 °F 72% 30.03 in 3.0 mi West 17.3 mph 27.6 mph N/A   Haze
10:54 AM 1.4 °F -18.2 °F -5.8 °F 72% 30.03 in 5.0 mi West 16.1 mph 21.9 mph N/A   Haze
11:15 AM 2.5 °F -16.8 °F -5.1 °F 71% 30.03 in 7.0 mi WSW 16.1 mph 20.7 mph N/A   Overcast
11:35 AM 3.2 °F -17.6 °F -4.0 °F 72% 30.03 in 1.5 mi West 19.6 mph 27.6 mph N/A   Haze
11:54 AM 3.9 °F -17.1 °F -4.0 °F 70% 30.03 in 1.0 mi West 20.7 mph 31.1 mph N/A   Haze
12:15 PM 3.7 °F -16.4 °F -3.8 °F 71% 30.03 in 0.5 mi West 18.4 mph 32.2 mph N/A Snow Light Snow
12:35 PM 5.4 °F -15.7 °F -3.1 °F 68% 30.02 in 0.8 mi West 21.9 mph 32.2 mph N/A   Haze
12:54 PM 5.9 °F -11.2 °F -3.1 °F 67% 30.02 in 1.2 mi West 13.8 mph 29.9 mph N/A   Haze
1:15 PM 6.3 °F -15.0 °F -2.9 °F 66% 30.02 in 1.2 mi West 23.0 mph 35.7 mph N/A   Haze
1:35 PM 5.5 °F -13.5 °F -3.6 °F 66% 30.02 in 2.0 mi West 17.3 mph 32.2 mph N/A   Haze
1:54 PM 6.6 °F -12.6 °F -2.0 °F 68% 30.01 in 1.8 mi West 18.4 mph 25.3 mph N/A   Haze
2:15 PM 5.5 °F -10.9 °F -2.9 °F 68% 30.02 in 2.0 mi West 12.7 mph 27.6 mph N/A   Haze
2:35 PM 4.6 °F -16.7 °F -3.8 °F 68% 30.03 in 2.5 mi West 21.9 mph 26.5 mph N/A   Haze
2:54 PM 4.3 °F -13.9 °F -3.6 °F 70% 30.04 in 1.5 mi West 15.0 mph 31.1 mph N/A   Haze
3:15 PM 5.0 °F -13.6 °F -3.1 °F 69% 30.04 in 2.5 mi West 16.1 mph 28.8 mph N/A   Haze
3:35 PM 5.4 °F -14.8 °F -3.1 °F 68% 30.04 in 4.0 mi West 19.6 mph 27.6 mph N/A   Haze
3:54 PM 5.0 °F -16.2 °F -3.5 °F 68% 30.05 in 5.0 mi West 21.9 mph 32.2 mph N/A   Haze
4:15 PM 5.0 °F -13.0 °F -2.2 °F 72% 30.05 in 2.5 mi West 15.0 mph 26.5 mph N/A   Haze
4:35 PM 5.4 °F -11.8 °F -2.2 °F 71% 30.05 in 7.0 mi West 13.8 mph 17.3 mph N/A   Overcast
4:54 PM 5.5 °F -11.6 °F -1.5 °F 73% 30.05 in 4.0 mi West 13.8 mph 21.9 mph N/A   Haze
5:15 PM 5.9 °F -10.5 °F -1.3 °F 72% 30.06 in 4.0 mi West 12.7 mph 20.7 mph N/A   Haze
5:35 PM 6.1 °F -7.8 °F -0.8 °F 73% 30.06 in 4.0 mi West 9.2 mph 21.9 mph N/A   Haze
5:54 PM 6.3 °F -5.4 °F -0.0 °F 75% 30.07 in 7.0 mi West 6.9 mph - N/A Snow Light Snow
6:15 PM 6.3 °F -7.5 °F 0.3 °F 77% 30.08 in 7.0 mi West 9.2 mph - N/A Snow Light Snow
6:35 PM 5.9 °F -8.9 °F 0.1 °F 77% 30.08 in 10.0 mi West 10.4 mph - N/A   Overcast
6:54 PM 5.9 °F -7.0 °F 0.1 °F 77% 30.10 in 10.0 mi West 8.1 mph - N/A   Overcast
7:15 PM 6.1 °F -7.8 °F 0.3 °F 77% 30.10 in 10.0 mi West 9.2 mph - N/A   Overcast
7:34 PM 5.9 °F -9.7 °F 0.1 °F 77% 30.11 in 10.0 mi WSW 11.5 mph - N/A   Overcast
7:55 PM 5.9 °F -8.9 °F -0.4 °F 75% 30.11 in 10.0 mi WSW 10.4 mph - N/A   Overcast
8:15 PM 6.3 °F -10.0 °F -0.8 °F 73% 30.12 in 10.0 mi West 12.7 mph 18.4 mph N/A   Overcast
8:34 PM 6.3 °F -8.4 °F -0.4 °F 74% 30.12 in 10.0 mi West 10.4 mph - N/A   Overcast
8:55 PM 6.6 °F -9.5 °F -0.4 °F 73% 30.14 in 7.0 mi West 12.7 mph 17.3 mph N/A   Overcast
9:15 PM 6.6 °F -9.5 °F 0.3 °F 75% 30.14 in 7.0 mi West 12.7 mph - N/A   Overcast
9:34 PM 6.8 °F -10.7 °F 0.5 °F 75% 30.15 in 5.0 mi West 15.0 mph 20.7 mph N/A Snow Light Snow
9:55 PM 6.8 °F -7.8 °F 0.5 °F 75% 30.15 in 7.0 mi West 10.4 mph - N/A   Overcast
10:15 PM 6.6 °F -8.0 °F 0.5 °F 76% 30.15 in 10.0 mi West 10.4 mph - N/A   Overcast
10:34 PM 6.8 °F -9.3 °F 0.5 °F 75% 30.15 in 10.0 mi WSW 12.7 mph 16.1 mph N/A   Overcast
10:55 PM 7.2 °F -7.3 °F 0.5 °F 74% 30.16 in 10.0 mi West 10.4 mph 19.6 mph N/A   Mostly Cloudy
11:15 PM 7.7 °F -6.6 °F 0.7 °F 73% 30.17 in 10.0 mi West 10.4 mph - N/A   Mostly Cloudy
11:34 PM 7.7 °F -5.8 °F 1.4 °F 75% 30.17 in 10.0 mi West 9.2 mph - N/A   Overcast
11:55 PM 7.7 °F -5.8 °F 1.9 °F 77% 30.17 in 10.0 mi West 9.2 mph - N/A   Overcast